Regional Weather Roundup
Issued by NWS Sioux Falls, SD

Home | Current Version | Previous Version | Graphics & Text | Print | Product List | Glossary Off
Versions: 1 2 3 4 5 6 7 8 9 10 11 12 13 14 15 16 17 18 19 20 21 22 23 24 25 26 27 28 29 30 31 32 33 34 35 36 37 38 39 40 41 42 43 44 45 46 47 48 49 50

000
ASUS43 KFSD 201810
RWRFSD

WEATHER ROUNDUP FOR SE SOUTH DAKOTA/SW MINNESOTA/NW IOWA
NATIONAL WEATHER SERVICE SIOUX FALLS SD
100 PM CDT MON OCT 20 2014

NOTE: "FAIR" INDICATES FEW OR NO CLOUDS BELOW 12,000 FEET WITH NO
SIGNIFICANT WEATHER AND OR OBSTRUCTIONS TO VISIBILITY.


SDZ038>040-050-052>070-201900-
SOUTHEAST SOUTH DAKOTA

CITY           SKY/WX    TMP DP  RH WIND       PRES   REMARKS
CHAMBERLAIN    SUNNY     68  38  33 SE6       30.09F
6HR MIN TEMP:  29; 6HR MAX TEMP:  68;

HURON          SUNNY     68  38  33 VRB3      30.09F
6HR MIN TEMP:  31; 6HR MAX TEMP:  68;

MADISON        FAIR      66  37  34 N9G18     30.08F
MITCHELL       SUNNY     68  39  34 SW5       30.10F
6HR MIN TEMP:  37; 6HR MAX TEMP:  68;

SIOUX FALLS    MOSUNNY   68  42  38 N14       30.07F
6HR MIN TEMP:  36; 6HR MAX TEMP:  68;

WINNER         FAIR      72  37  28 S10       30.09F
YANKTON        SUNNY     66  39  37 W3        30.10F
$$

MNZ071-072-080-081-089-090-097-098-201900-
SOUTHWEST MINNESOTA

CITY           SKY/WX    TMP DP  RH WIND       PRES   REMARKS
FAIRMONT       SUNNY     64  37  36 N16G22    30.02F
JACKSON        SUNNY     66  36  32 N9G20     30.05F
LUVERNE        SUNNY     68  36  30 N9G16     30.07F
MARSHALL       SUNNY     64  39  39 NW12G18   30.04F
6HR MIN TEMP:  41; 6HR MAX TEMP:  64;

MONTEVIDEO     SUNNY     66  43  42 N7        30.05F
PIPESTONE      SUNNY     66  37  34 NW12      30.06F
REDWOOD FALLS  SUNNY     65  40  39 NW12      30.03F
TRACY          SUNNY     65  41  41 NW12      30.05F
WINDOM         SUNNY     64  39  39 N13       30.04F
WORTHINGTON    SUNNY     64  39  39 NW9G22    30.06F
$$

IAZ001>003-012>014-020>022-031-032-NEZ013-014-SDZ071-201900-
NORTHWEST IOWA

CITY           SKY/WX    TMP DP  RH WIND       PRES   REMARKS
CHEROKEE       SUNNY     65  42  42 NW8G16    30.06F
DENISON        SUNNY     66  41  39 NW12      30.06S
ESTHERVILLE    SUNNY     67  40  37 NW15      30.03F
LE MARS        SUNNY     68  41  37 NW9       30.08F
ORANGE CITY    SUNNY     68  37  32 N9G16     30.07F
SHELDON        SUNNY     66  39  37 NW9G15    30.06F
SIOUX CITY     SUNNY     69  41  36 NW10      30.09F
6HR MIN TEMP:  37; 6HR MAX TEMP:  69;

SPENCER        SUNNY     67  41  38 NW12      30.05F
6HR MIN TEMP:  34; 6HR MAX TEMP:  68;

STORM LAKE     SUNNY     66  41  39 NW12G18   30.07F
$$

ABBREVIATIONS USED IN REMARKS
   TC - TEMPERATURE IN CELSIUS
  WCI - WIND CHILL INDEX
   HX - HEAT INDEX
  VSB - VISIBILITY



USA.gov is the U.S. government's official web portal to all federal, state and local government web resources and services.